www.pogodaiklimat.ru

Погода и климат >> Архив погоды >> Кувейт >> Abraque Al Habari


ПОГОДА в Abraque Al Habari

  • Прогноз погоды в Abraque Al Habari
  • Монитор погоды в Abraque Al Habari
  • Климат города

АРХИВ ПОГОДЫ в Abraque Al Habari

Время (UTC), дата Ветер
(напр.,м/с)
 
Видим.   Явления Облачность Т
(С)
Тd
(С)
f
(%)
Тe
(С)
Тes
(С)
Комфортность P
(гПа)
Po
(гПа)
Тmin
(С)
Tmax
(С)
R
(мм)
R24
(мм)
S
(см)
03 16.09 СЗ 6-8
{11}
9000 м дымка н/о +29.0 +8.8 28 +29 +29 жарко 1007.1 1007.0
06 16.09 СЗ 9-11
{11}
13 км н/о +35.4 +7.0 17 +33 +33 жарко 1007.1 1007.0
09 16.09 СЗ 8-10
{11}
15 км н/о +42.1 +6.0 11 +39 +39 очень
жарко
1004.9 1005.0
12 16.09 СЗ 8-13
{14}
10 км н/о +43.9 +4.4 9 +41 +41 опасность
перегрева
1003.3 1003.0
15 16.09 СЗ 6-8
{13}
15 км н/о +40.7 +3.5 10 +37 +37 очень
жарко
1003.7 1004.0
18 16.09 СЗ 6-7
{13}
10 км н/о +35.0 +4.3 15 +32 +32 жарко 1005.6 1006.0
21 16.09 СЗ 6-8
{9}
11 км н/о +32.3 +6.1 19 +30 +30 жарко 1005.2 1005.0 +28.9 +44.5
00 17.09 СЗ 5-6
{9}
16 км н/о +30.1 +7.3 24 +29 +29 жарко 1004.7 1005.0
03 17.09 СЗ 6-7
{8}
16 км н/о +28.8 +6.1 24 +28 +28 жарко 1005.5 1006.0
06 17.09 СЗ 8-11
{11}
17 км н/о +36.4 +6.7 16 +34 +34 очень
жарко
1005.5 1006.0
09 17.09 С 9-13
{14}
14 км н/о +43.2 +6.6 11 +41 +41 опасность
перегрева
1003.8 1004.0
12 17.09 С 8-12
{14}
15 км н/о +44.7 +3.5 8 +41 +41 опасность
перегрева
1002.2 1002.0
15 17.09 С 6-7
{13}
16 км н/о +40.8 +3.9 10 +38 +38 очень
жарко
1003.0 1003.0
18 17.09 С 5-6
{13}
15 км н/о +35.5 +5.2 15 +33 +33 жарко 1004.6 1005.0
21 17.09 СЗ 5-6
{7}
14 км н/о +32.5 +6.4 20 +31 +31 жарко 1004.5 1005.0 +28.5 +45.3
00 18.09 СЗ 5-6
{7}
15 км н/о +30.8 +6.5 22 +29 +29 жарко 1004.2 1004.0
03 18.09 З 2-3
{6}
6000 м дымка н/о +28.9 +6.7 25 +28 +28 жарко 1005.4 1005.0
06 18.09 СЗ 4-5
{6}
14 км н/о +37.5 +6.7 15 +35 +35 очень
жарко
1005.9 1006.0
09 18.09 С 5-7
{8}
15 км н/о +44.4 +3.2 8 +41 +41 опасность
перегрева
1004.0 1004.0
12 18.09 СЗ 5-8
{9}
16 км н/о +45.3 -0.4 6 +41 +41 опасность
перегрева
1002.5 1003.0
15 18.09 СЗ 4-5
{9}
17 км н/о +40.9 -1.6 7 +37 +37 очень
жарко
1003.5 1004.0
18 18.09 С 4-5
{9}
18 км н/о +36.1 -1.4 9 +32 +32 жарко 1005.5 1006.0
21 18.09 В 3-3
{7}
16 км н/о +31.7 -0.5 13 +29 +29 жарко 1005.8 1006.0 +28.8 +45.8
00 19.09 Ю 3-6
{7}
7000 м дымка н/о +28.4 +5.5 23 +34 +34 очень
душно
1005.6 1006.0
03 19.09 ЮЗ 4-6
{7}
2100 м дымка н/о +27.7 +9.6 32 +28 +28 жарко 1006.3 1006.0
06 19.09 ЮЗ 4-5
{7}
11 км {туман, дымка} н/о +38.7 +4.6 12 +36 +36 очень
жарко
1006.4 1006.0
09 19.09 ЮВ 1-3
{6}
14 км н/о +45.3 +3.8 8 +42 +42 опасность
перегрева
1004.6 1005.0
12 19.09 С 2-4
{7}
18 км н/о +45.0 +8.5 12 +41 +41 опасность
перегрева
1003.2 1003.0
15 19.09 В 5-9
{9}
10 км н/о +41.0 +14.5 21 +42 +42 опасность
перегрева
1003.3 1003.0
18 19.09 ЮВ 3-5
{10}
8000 м дымка н/о +35.2 +17.4 35 +39 +39 очень
душно
1005.6 1006.0
21 19.09 Ю 4-5
{5}
7000 м дымка н/о +31.9 +20.2 50 +38 +38 очень
душно
1005.0 1005.0 +27.5 +46.0
00 20.09 Ю 5-6
{7}
7000 м дымка н/о +29.7 +21.6 62 +38 +38 очень
душно
1004.9 1005.0
03 20.09 ЮЗ 4-5
{12}
4200 м дымка н/о +28.8 +16.6 48 +32 +32 душно 1006.3 1006.0
06 20.09 ЮЗ 5-6
{12}
9000 м дымка н/о +38.6 +12.8 22 +39 +39 душно 1006.2 1006.0
09 20.09 СЗ 4-7
{7}
13 км н/о +44.1 +7.2 11 +42 +42 опасность
перегрева
1004.9 1005.0
12 20.09 СЗ 4-8
{10}
14 км н/о +44.7 +1.5 7 +41 +41 опасность
перегрева
1003.5 1004.0
15 20.09 С 4-6
{9}
15 км н/о +40.7 +2.9 10 +37 +37 очень
жарко
1004.0 1004.0
18 20.09 С 4-5
{9}
15 км н/о +35.8 +4.0 14 +33 +33 жарко 1006.2 1006.0
21 20.09 С 4-5
{6}
13 км н/о +32.5 +4.7 17 +30 +30 жарко 1006.1 1006.0 +28.5 +44.8
00 21.09 СЗ 3-3
{6}
11 км н/о +29.7 +4.0 19 +28 +28 жарко 1006.1 1006.0
03 21.09 СЗ 3-3
{6}
7000 м дымка н/о +28.5 +5.4 23 +27 +27 жарко 1007.1 1007.0
06 21.09 С 2-4
{6}
7000 м дымка н/о +37.5 +8.2 17 +36 +36 очень
жарко
1008.1 1008.0
09 21.09 С 4-7
{8}
18 км н/о +42.8 +3.4 9 +40 +40 очень
жарко
1006.8 1007.0
12 21.09 С 4-8
{9}
17 км н/о +43.4 +2.2 8 +40 +40 очень
жарко
1005.6 1006.0
15 21.09 С 3-4
{7}
18 км н/о +39.8 +2.0 10 +36 +36 очень
жарко
1006.1 1006.0
18 21.09 С 3-3
{7}
16 км н/о +35.5 +2.0 12 +32 +32 жарко 1007.8 1008.0
21 21.09 В 3-3
{5}
3800 м дым н/о +31.6 +1.7 15 +29 +29 жарко 1007.9 1008.0 +28.2 +44.2
00 22.09 Ю 3-4
{5}
8000 м дым н/о +29.1 +1.4 17 +27 +27 жарко 1007.8 1008.0
03 22.09 ЮЗ 6-7
{7}
4400 м дымка н/о +29.6 +7.1 24 +28 +28 жарко 1008.3 1008.0
06 22.09 ЮЗ 5-7
{8}
13 км н/о +37.9 +5.3 13 +35 +35 очень
жарко
1008.7 1009.0
09 22.09 З 3-6
{13}
15 км н/о +41.2 +3.5 10 +38 +38 очень
жарко
1008.2 1008.0
12 22.09 З 3-5
{13}
15 км н/о +43.4 +2.8 8 +40 +40 очень
жарко
1006.3 1006.0
15 22.09 В 3-3
{4}
12 км н/о +39.9 +2.5 10 +36 +36 очень
жарко
1006.6 1007.0
18 22.09 СВ 3-3
{6}
4700 м дым н/о +34.3 +3.2 14 +31 +31 жарко 1008.4 1008.0
21 22.09 ЮВ 2-3
{4}
9000 м дым н/о +32.2 +3.8 17 +30 +30 жарко 1008.1 1008.0 +28.2 +44.2

 

Местоположение метеостанции Abraque Al Habari (Кувейт): широта 29.30 долгота 47.00 высота над уровнем моря 237 м.

В архиве по умолчанию представлена погода в Abraque Al Habari за последнюю неделю. Архивные данные за месяц целиком и за предыдущие месяцы, начиная с января 2011 года, Вы можете получить, выбрав интересующий диапазон дат из раскрывающегося списка и нажав кнопку "Ввод!".


*Определитесь, кто Вы:
робот инопланетянин человек

Внимание! Время в таблицах - всемирное. Для получения местного времени необходимо прибавить поправку, которая в Abraque Al Habari равна 3 ч.

Смотрите также архив погоды в соседних городах и на ближайших метеорологических станциях:

Погода в Al-Salmi (Кувейт) (38 км)
Погода в Minagish (Кувейт) (57 км)
Погода в Jahra (Кувейт) (65 км)
Погода в Jal Aliyah (Кувейт) (66 км)
Погода в Mitribah (Кувейт) (68 км)
Погода в Sulaibiya (Кувейт) (70 км)
Погода в Experimental Farm (Кувейт) (91 км)
Погода в Kuwait (Кувейт) (95 км)
Погода в Sabriyah (Кувейт) (96 км)
Погода в Kuwait City (Кувейт) (102 км)

Пояснения к столбцам:

Ветер - указаны скорость ветра в м/с - средняя за 10 мин, порывы в срок и между сроками (в фигурных скобках) и направление, откуда дует ветер: С - северный, СВ - северо-восточный, В - восточный, ЮВ - юго-восточный, Ю - южный, ЮЗ - юго-западный, З - западный, СЗ - северо-западный.
Видимость - горизонтальная дальность видимости в метрах или километрах. При видимости от 1 до 10 км при отсутствии осадков обычно наблюдается дымка, при ухудшении видимости до 1 км и менее - туман. В сухую погоду видимость может ухудшаться дымом, пылью или мглою.
Явления - указаны атмосферные явления, наблюдавшиеся в срок или в последний час перед сроком; фигурными скобками обозначены явления, наблюдавшиеся между сроками (за 1-3 часа до срока); квадратными скобками обозначены град или гололедные отложения с указанием их диаметра в мм.
Облачность - указаны через наклонную черту общая и нижняя облачность в баллах и высота нижней границы облаков в метрах; квадратными скобками обозначены формы облаков: Ci - перистые, Cs - перисто-слоистые, Cc - перисто-кучевые, Ac - высококучевые, As - высокослоистые, Sc - слоисто-кучевые, Ns - слоисто-дождевые, Cu - кучевые, Cb - кучево-дождевые. Подробнее классификацию облаков см. в Атласе облаков (PDF).
T - Температура воздуха - температура, измеренная на высоте 2 м над землей.
Td - Температура точки росы - температура, при понижении до которой содержащийся в воздухе водяной пар достигнет насыщения.
f - Относительная влажность воздуха - влажноcть воздуха, измеренная на высоте 2 м над землей.
Te - Эффективная температура - температура, которую ощущает одетый по сезону человек в тени. Характеристика душности погоды. При расчете учитывается влияние влажности воздуха и скорости ветра на теплоощущения человека.
Tes - Эффективная температура на солнце - температура, которую ощущает человек, с поправкой на солнечный нагрев. Характеристика знойности погоды. Зависит от высоты солнца над горизонтом, облачности и скорости ветра. Ночью, в пасмурную погоду, а также при ветре 12 м/с и более поправка равна нулю.
P - Атмосферное давление - приведенное к уровню моря атмосферное давление.
Po - Атмосферное давление - измеренное на уровне метеостанции атмосферное давление.
Tmin - Минимальная температура - минимум температуры воздуха на высоте 2 м над землей.
Tmax - Максимальная температура - максимум температуры воздуха на высоте 2 м над землей.
R - Количество осадков - Количество выпавших осадков за период времени, мм. При наведении курсора мыши на число - период времени, за который выпало указанное количество осадков.
R24 - Количество осадков - Количество выпавших осадков за 24 часа, мм.
S - Снежный покров - Высота снежного покрова, см. При наведении курсора мыши на число - состояние снежного покрова и степень покрытия местности в баллах.